Fort Campbell, KY

6:20 PM CST on February 06, 2016 (GMT -0600)
Campbell Army Air Field

Weather History for KHOP - April, 2014

Change the Weather History Date:

Sunday, April 20, 2014

  Actual Average Record
Temperature  
Mean Temperature 62 °F -  
Max Temperature 77 °F 69 °F 84 °F (2002)
Min Temperature 48 °F 49 °F 34 °F (2013)
Degree Days  
Heating Degree Days 2    
Growing Degree Days 12 (Base 50)    
Moisture  
Dew Point 42 °F    
Average Humidity 48    
Maximum Humidity 82    
Minimum Humidity 24    
Precipitation  
Precipitation 0.00 in - - ()
Sea Level Pressure  
Sea Level Pressure 30.16 in    
Wind  
Wind Speed 2 mph (East)    
Max Wind Speed 7 mph    
Max Gust Speed -    
Visibility 10 miles    
Events      
Averages and records for this station are not official NWS values.
T = Trace of Precipitation, MM = Missing Value Source: NWS Daily Summary

Daily Weather History Graph

Daily Weather History Graph

Search for Another Location

Airport or City:

Trip Planner

Search our weather history database for the weather conditions in past years. The results will help you decide how hot, cold, wet, or windy it might be!

Date:

Astronomy

Apr. 20, 2014 Rise Set
Actual Time 6:09 AM CDT 7:28 PM CDT
Civil Twilight 5:42 AM CDT 7:55 PM CDT
Nautical Twilight 5:10 AM CDT 8:28 PM CDT
Astronomical Twilight 4:36 AM CDT 9:01 PM CDT
Moon 12:04 AM CDT (4/20) 10:32 AM CDT (4/20)
Length of Visible Light 14h 13m
Length of Day
13h 19m
Waning Gibbous, 68% of the Moon is Illuminated
Apr 20
Waning Gibbous
Apr 22
Last Quarter
Apr 29
New
May 6
First Quarter
May 14
Full

Hourly Weather History & Observations

Time (CDT) Temp. Dew Point Humidity Pressure Visibility Wind Dir Wind Speed Gust Speed Precip Events Conditions
12:58 AM 57.2 °F 39.2 °F 51% 30.18 in 10.0 mi ESE 2.3 mph - N/A   Clear
1:58 AM 53.6 °F 39.2 °F 58% 30.18 in 10.0 mi Calm Calm - N/A   Clear
2:58 AM 51.8 °F 41.0 °F 67% 30.18 in 10.0 mi Calm Calm - N/A   Clear
3:58 AM 48.2 °F 41.0 °F 76% 30.18 in 10.0 mi NNE 3.5 mph - N/A   Clear
4:58 AM 48.2 °F 39.2 °F 71% 30.19 in 10.0 mi NE 3.5 mph - N/A   Clear
5:58 AM 50.0 °F 41.0 °F 71% 30.21 in 10.0 mi East 2.3 mph - N/A   Clear
6:58 AM 48.2 °F 42.8 °F 82% 30.22 in 10.0 mi East 1.2 mph - N/A   Clear
7:58 AM 55.4 °F 44.6 °F 67% 30.24 in 10.0 mi ESE 2.3 mph - N/A   Clear
8:58 AM 60.8 °F 42.8 °F 52% 30.24 in 10.0 mi ESE 3.5 mph - N/A   Clear
9:58 AM 68.0 °F 42.8 °F 40% 30.23 in 10.0 mi Calm Calm - N/A   Clear
10:58 AM 73.4 °F 44.6 °F 36% 30.22 in 10.0 mi Variable 3.5 mph - N/A   Clear
11:58 AM 75.2 °F 39.2 °F 27% 30.21 in 10.0 mi SW 5.8 mph - N/A   Clear
12:58 PM 75.2 °F 37.4 °F 25% 30.19 in 10.0 mi Variable 3.5 mph - N/A   Clear
1:58 PM 77.0 °F 39.2 °F 26% 30.17 in 10.0 mi Variable 2.3 mph - N/A   Clear
2:58 PM 77.0 °F 37.4 °F 24% 30.15 in 10.0 mi SW 4.6 mph - N/A   Clear
3:58 PM 77.0 °F 39.2 °F 26% 30.13 in 10.0 mi Variable 2.3 mph - N/A   Mostly Cloudy
4:58 PM 77.0 °F 37.4 °F 24% 30.11 in 10.0 mi ENE 6.9 mph - N/A   Partly Cloudy
5:58 PM 75.2 °F 37.4 °F 25% 30.11 in 10.0 mi ENE 4.6 mph - N/A   Partly Cloudy
6:58 PM 73.4 °F 42.8 °F 33% 30.09 in 10.0 mi NE 3.5 mph - N/A   Clear
7:58 PM 69.8 °F 42.8 °F 38% 30.10 in 10.0 mi Calm Calm - N/A   Clear
8:28 PM 66.2 °F 46.4 °F 49% 30.10 in 9.0 mi Calm Calm - N/A   Clear
8:38 PM 66.2 °F 46.4 °F 49% 30.11 in 10.0 mi Calm Calm - N/A   Clear
8:58 PM 66.2 °F 46.4 °F 49% 30.11 in 10.0 mi SSW 1.2 mph - 0.00 in   Clear
9:58 PM 60.8 °F 46.4 °F 59% 30.11 in 10.0 mi North 2.3 mph - N/A   Clear
10:58 PM 59.0 °F 46.4 °F 63% 30.11 in 10.0 mi Calm Calm - N/A   Clear
11:58 PM 59.0 °F 44.6 °F 59% 30.10 in 10.0 mi WSW 2.3 mph - N/A   Clear